Tracking 18032 objects as of 27-March-2017
HD Live streaming from Space Station
objects crossing your sky now

COSMOS 469

Track COSMOS 469 now!
10-day predictions
COSMOS 469 is classified as:


NORAD ID: 5721
Int'l Code: 1971-117A
Perigee: 937.6 km
Apogee: 1,032.9 km
Inclination: 64.5 °
Period: 104.7 minutes
Semi major axis: 7356 km
RCS: 2.893 m2 (large)
Launch date: December 25, 1971
Source: Commonwealth of Independent States (former USSR) (CIS)
Launch site: TYURATAM MISSILE AND SPACE COMPLEX (TTMTR)
Your satellite tracking list
Your tracking list is empty





NASA's NSSDC Master Catalog

Two Line Element Set (TLE):
1  5721U 71117A   17084.60292497 -.00000056 +00000-0 +34780-4 0  9999
2  5721 064.4863 125.3227 0064728 289.0020 070.4026 13.76014747273346
Source of the keplerian elements: AFSPC